SR-0 DEMOSAT

Last updated on Mon Sep 16 2024 00:02:03 GMT+0000 (Coordinated Universal Time)

1 60455U 24147B 24259.00588861 .00224165 00000+0 47297-2 0 9996 2 60455 37.3784 113.1986 0020936 262.1049 97.7337 15.43284127 4587

Satellite not in orbit

SR-0 DEMOSAT